This is the latest recevied weather packets stored in our database for station/object KC2WGU. If no packets are shown the sender has not sent any weather packets the latest 10 day(s).
| Time | Temp. | Humidity | Pressure | Rain* | Wind** | Luminosity | Snow |
|---|---|---|---|---|---|---|---|
| 1777645817 | 10° C | 61% | 1010.4 hPa | 0 mm | - | 0 W/m² | - |
| 1777645218 | 9.44° C | 62% | 1010.3 hPa | 0 mm | - | 0 W/m² | - |
| 1777644619 | 8.89° C | 67% | 1010.3 hPa | 0 mm | - | 0 W/m² | - |
| 1777644018 | 8.89° C | 69% | 1010.3 hPa | 0 mm | - | 0 W/m² | - |
| 1777643417 | 8.89° C | 71% | 1010.2 hPa | 0 mm | - | 0 W/m² | - |
| 1777642818 | 8.33° C | 73% | 1010.3 hPa | 0 mm | - | 0 W/m² | - |
| 1777642218 | 8.33° C | 74% | 1010.3 hPa | 0 mm | - | 0 W/m² | - |
| 1777641618 | 7.78° C | 76% | 1010.3 hPa | 0 mm | - | 0 W/m² | - |
| 1777641017 | 7.78° C | 78% | 1010.3 hPa | 0 mm | - | 0 W/m² | - |
| 1777640417 | 7.22° C | 78% | 1010.4 hPa | 0 mm | - | 0 W/m² | - |
| 1777639818 | 6.67° C | 77% | 1010.2 hPa | 0 mm | - | 0 W/m² | - |
| 1777639218 | 7.22° C | 77% | 1010.2 hPa | 0 mm | - | 0 W/m² | - |
| 1777638617 | 6.67° C | 79% | 1010.2 hPa | 0 mm | - | 0 W/m² | - |
| 1777638017 | 6.67° C | 79% | 1010.1 hPa | 0 mm | - | 0 W/m² | - |
| 1777637417 | 6.11° C | 80% | 1010.1 hPa | 0 mm | - | 0 W/m² | - |
| 1777636817 | 6.11° C | 81% | 1010.1 hPa | 0 mm | - | 0 W/m² | - |
| 1777636218 | 5.56° C | 80% | 1010 hPa | 0 mm | - | 0 W/m² | - |
| 1777635617 | 5° C | 81% | 1009.9 hPa | 0 mm | - | 0 W/m² | - |
| 1777635018 | 5° C | 82% | 1009.9 hPa | 0 mm | - | 0 W/m² | - |
| 1777634418 | 4.44° C | 82% | 1009.9 hPa | 0 mm | - | 0 W/m² | - |
| 1777633817 | 4.44° C | 83% | 1009.7 hPa | 0 mm | - | 0 W/m² | - |
| 1777633217 | 3.89° C | 85% | 1009.8 hPa | 0 mm | - | 0 W/m² | - |
| 1777632617 | 3.33° C | 85% | 1009.8 hPa | 0 mm | - | 0 W/m² | - |
| 1777632016 | 3.33° C | 85% | 1009.8 hPa | 0 mm | - | 0 W/m² | - |
| 1777631418 | 2.78° C | 86% | 1009.9 hPa | 0 mm | - | 0 W/m² | - |
* Rain latest hour (hover to see other rain measurements)
** Current wind speed in m/s (hover to see current wind gust speed)